Regional Weather Roundup
Issued by NWS

Home | Current Version | Previous Version | Graphics & Text | Print | Product List | Glossary On
Versions: 1 2 3 4 5 6 7 8 9 10 11 12 13 14 15 16 17 18 19 20 21 22 23 24 25 26 27 28 29 30 31 32 33 34 35 36 37 38 39 40 41 42 43 44 45 46 47 48 49 50
691
ASUS44 KMEG 250310
RWRTN
TENNESSEE HOURLY STATE WEATHER ROUNDUP
NATIONAL WEATHER SERVICE MEMPHIS TN
1000 PM CDT SUN SEP 24 2017

TNZ002-004-019-021-049-052-054-088>092-250400-
WEST TENNESSEE

CITY           SKY/WX    TMP DP  RH WIND       PRES   REMARKS
MEMPHIS INTL   PTCLDY    77  67  71 E7        29.98F
NWS MEMPHIS      N/A     72 N/A N/A MISG        N/A
JACKSON        CLEAR     70  69  97 CALM      30.00S
DYERSBURG      CLEAR     70  70 100 E3        30.00S
SOMERVILLE     CLEAR     72  70  94 CALM      29.98F
COVINGTON      CLEAR     68  68 100 CALM      29.99S
BOLIVAR        CLEAR     68  68 100 CALM      30.00R
PARIS          CLEAR     70  68  94 CALM      30.00S
HUNTINGDON     CLEAR     70  68  94 CALM      30.00S
LEXINGTON      CLEAR     70  70 100 CALM      30.01R
SELMER         CLEAR     70  66  88 CALM      30.00S
SAVANNAH       CLEAR     70  68  94 CALM      30.00R
$$

TNZ008-025-027-028-033-062-065-066-250400-
NORTH MIDDLE TENNESSEE

CITY           SKY/WX    TMP DP  RH WIND       PRES   REMARKS
NASHVILLE      MOCLDY    75  67  76 S5        30.03R
PORTLAND       CLEAR     70  70 100 CALM      30.02F
CLARKSVILLE    CLOUDY    71  68  90 CALM      30.02S
SMYRNA           N/A    N/A N/A N/A MISG        N/A
COOKEVILLE     CLEAR     66  64  94 CALM      30.05R
GALLATIN       CLEAR     73  68  83 CALM      30.05S
CROSSVILLE     CLEAR     65  63  93 CALM      30.09F
$$

TNZ061-075-076-078-094-096-097-250400-
SOUTH MIDDLE TENNESSEE

CITY           SKY/WX    TMP DP  RH WIND       PRES   REMARKS
FAYETTEVILLE   CLEAR     73  66  78 CALM      30.03S
TULLAHOMA      CLEAR     68  64  88 CALM      30.06S
WINCHESTER     CLEAR     66  64  94 CALM      30.05S
MCMINNVILLE    CLEAR     68  68 100 CALM      30.05S
COLUMBIA       CLEAR     70 N/A N/A CALM      30.01S
SHELBYVILLE    CLEAR     70  66  88 CALM      30.03S
$$

TNZ017-018-042-046-047-250400-
NORTHEAST TENNESSEE

CITY           SKY/WX    TMP DP  RH WIND       PRES   REMARKS
TRI CITIES     PTCLDY    66  61  84 CALM      30.09R
ELIZABETHTON   CLEAR     68  59  73 E8        30.10S
$$

TNZ012-013-036-069-073-074-250400-
CENTRAL EAST TENNESSEE

CITY           SKY/WX    TMP DP  RH WIND       PRES   REMARKS
KNOXVILLE      PTCLDY    73  63  70 CALM      30.03R
OAK RIDGE      CLEAR     69  65  86 CALM      30.05S
DOWNTOWN KNOXV   N/A     68  66  94 CALM      30.02S
GATLINBURG     CLEAR     68  61  77 CALM      30.04S
MORRISTOWN     PTCLDY    72  61  68 CALM      30.05R
JACKSBORO      CLEAR     66  66 100 CALM      30.09S
$$

TNZ083-085-099-250400-
SOUTHEAST TENNESSEE

CITY           SKY/WX    TMP DP  RH WIND       PRES   REMARKS
CHATTANOOGA    PTCLDY    72  67  84 CALM      30.02F
DAYTON         PTCLDY    70  68  94 CALM      30.02S
$$

SKY/WX REPORTED AS FAIR MEANS FEW OR NO CLOUDS BELOW
12 THOUSAND FEET.





USA.gov is the U.S. government's official web portal to all federal, state and local government web resources and services.